Voltar ao catálogo

STARLINK-3157

AtivoComunicaçõesVLEO
NORAD 49413·PAYLOAD·🇺🇸 United States

Lançado Nov 13, 2021 de Cape Canaveral Space Force Station

Loading…

Próximas Passagens (próximas 24 horas)

TLE

AtualizadoSource: CelesTrak SupGP

Época: Sep 14, 2026, 20:47 UTC

1 49413C 21104F   26257.86645833  .00023867  00000+0  72429-3 0  2573
2 49413  53.1583  78.1660 0001243  83.0064  72.8873 15.33534260    15

Acompanhe STARLINK-3157 em tempo real com AllMySat

Download on the App Store